Photometre #141[NE_1.6_Dp] Toulouse_MF AOT

File : 20200927_141.hum

27/09/2020,06:37:51,TEMP=8.4,BA=5.20,STAT.A=0.0,ExtBa=12.80
27/09/2020,06:41:25,TEMP=8.6,BA=5.12,STAT.A=0.0,ExtBa=12.64
27/09/2020,06:43:20,TEMP=8.8,BA=5.12,STAT.b=0.0
27/09/2020,06:45:53,TEMP=8.7,BA=5.12,STAT.A=0.0,ExtBa=12.63
27/09/2020,06:50:35,TEMP=8.7,BA=5.20,STAT.A=0.0,ExtBa=12.67
27/09/2020,06:56:36,TEMP=8.8,BA=5.20,STAT.A=0.0,ExtBa=12.68
27/09/2020,07:04:02,TEMP=8.9,BA=5.20,STAT.A=0.0,ExtBa=12.69
27/09/2020,07:13:26,TEMP=9.1,BA=5.24,STAT.B=0.0,ExtBa=12.70
27/09/2020,07:25:36,TEMP=9.8,BA=5.16,STAT.A=0.0,ExtBa=12.58
27/09/2020,07:27:46,TEMP=10.0,BA=5.16,STAT.b=0.0
27/09/2020,07:28:26,TEMP=10.1,BA=5.16,STAT.A=0.0,ExtBa=12.59
27/09/2020,07:30:25,TEMP=10.2,BA=5.12,STAT.b=0.0
27/09/2020,07:31:06,TEMP=10.2,BA=5.12,STAT.A=0.0,ExtBa=12.59
27/09/2020,07:33:00,TEMP=10.3,BA=5.12,STAT.b=0.0
27/09/2020,07:35:28,TEMP=10.0,BA=5.12,STAT.A=0.0,ExtBa=12.63
27/09/2020,07:42:40,TEMP=9.8,BA=5.24,STAT.C=0.0,ExtBa=12.69
27/09/2020,07:51:24,TEMP=9.7,BA=5.28,STAT.A=0.0,ExtBa=12.70
27/09/2020,07:53:49,TEMP=10.0,BA=5.28,STAT.b=0.0
27/09/2020,08:02:01,TEMP=10.1,BA=5.32,STAT.A=0.0,ExtBa=12.67
27/09/2020,08:14:12,TEMP=9.9,BA=5.24,STAT.A=0.0,ExtBa=12.71
27/09/2020,08:29:38,TEMP=9.8,BA=5.20,STAT.A=0.0,ExtBa=12.73
27/09/2020,08:45:52,TEMP=10.1,BA=5.28,STAT.F,ExtBa=12.72
27/09/2020,09:03:09,TEMP=10.9,BA=5.12,STAT.b=0.0
27/09/2020,09:03:47,TEMP=10.9,BA=5.12,STAT.b=0.0
27/09/2020,09:15:50,TEMP=10.6,BA=5.28,STAT.D=0.0,ExtBa=12.71
27/09/2020,09:30:51,TEMP=11.1,BA=5.36,STAT.D=0.0,ExtBa=12.71
27/09/2020,09:45:52,TEMP=11.8,BA=5.44,STAT.F,ExtBa=12.74
27/09/2020,10:04:15,TEMP=13.4,BA=5.32,STAT.b=0.0
27/09/2020,10:07:53,TEMP=13.4,BA=5.32,STAT.b=0.0
27/09/2020,10:15:50,TEMP=13.0,BA=5.48,STAT.D=0.0,ExtBa=12.75
27/09/2020,10:30:51,TEMP=12.5,BA=5.40,STAT.D=0.0,ExtBa=12.72
27/09/2020,10:45:52,TEMP=12.3,BA=5.36,STAT.F,ExtBa=12.73
27/09/2020,11:00:51,TEMP=12.1,BA=5.24,STAT.D=0.0,ExtBa=12.74
27/09/2020,11:15:51,TEMP=11.9,BA=5.24,STAT.D=0.0,ExtBa=12.74
27/09/2020,11:30:51,TEMP=11.5,BA=5.24,STAT.D=0.0,ExtBa=12.74
27/09/2020,11:45:53,TEMP=11.8,BA=5.24,STAT.F,ExtBa=12.74
27/09/2020,12:00:51,TEMP=12.1,BA=5.24,STAT.D=0.0,ExtBa=12.74
27/09/2020,12:15:51,TEMP=12.3,BA=5.24,STAT.D=0.0,ExtBa=12.73
27/09/2020,12:30:51,TEMP=12.7,BA=5.32,STAT.D=0.0,ExtBa=12.73
27/09/2020,12:45:52,TEMP=12.9,BA=5.32,STAT.F,ExtBa=12.73
27/09/2020,13:00:51,TEMP=13.0,BA=5.28,STAT.D=0.0,ExtBa=12.73
27/09/2020,13:15:51,TEMP=13.4,BA=5.28,STAT.D=0.0,ExtBa=12.73
27/09/2020,13:30:51,TEMP=13.6,BA=5.24,STAT.D=0.0,ExtBa=12.74
27/09/2020,13:45:52,TEMP=13.7,BA=5.24,STAT.F,ExtBa=12.73
27/09/2020,14:00:50,TEMP=13.7,BA=5.20,STAT.D=0.0,ExtBa=12.73
27/09/2020,14:15:50,TEMP=14.1,BA=5.24,STAT.D=0.0,ExtBa=12.73
27/09/2020,14:30:50,TEMP=14.1,BA=5.20,STAT.D=0.0,ExtBa=12.73
27/09/2020,14:45:52,TEMP=14.0,BA=5.20,STAT.F,ExtBa=12.73
27/09/2020,15:02:06,TEMP=14.1,BA=5.20,STAT.A=0.0,ExtBa=12.74
27/09/2020,15:17:32,TEMP=14.2,BA=5.20,STAT.A=0.0,ExtBa=12.73
27/09/2020,15:29:59,TEMP=14.2,BA=5.20,STAT.A=0.0,ExtBa=12.73
27/09/2020,15:40:18,TEMP=14.2,BA=5.20,STAT.A=0.0,ExtBa=12.72
27/09/2020,15:49:02,TEMP=14.1,BA=5.20,STAT.C=0.0,ExtBa=12.72
27/09/2020,15:56:31,TEMP=14.1,BA=5.12,STAT.A=0.0,ExtBa=12.71
27/09/2020,16:03:01,TEMP=14.0,BA=5.20,STAT.A=0.0,ExtBa=12.70
27/09/2020,16:08:43,TEMP=13.8,BA=5.20,STAT.A=0.0,ExtBa=12.70
27/09/2020,16:13:46,TEMP=13.4,BA=5.12,STAT.A=0.0,ExtBa=12.69
27/09/2020,16:18:16,TEMP=13.2,BA=5.12,STAT.B=0.0,ExtBa=12.69
27/09/2020,16:27:40,TEMP=13.3,BA=5.12,STAT.A=0.0,ExtBa=12.71
27/09/2020,16:35:06,TEMP=13.3,BA=5.16,STAT.A=0.0,ExtBa=12.70
27/09/2020,16:41:07,TEMP=13.4,BA=5.16,STAT.A=0.0,ExtBa=12.70
27/09/2020,16:46:05,TEMP=13.6,BA=5.16,STAT.A=0.0,ExtBa=12.69
27/09/2020,16:50:17,TEMP=13.7,BA=5.16,STAT.A=0.0,ExtBa=12.68
27/09/2020,16:53:51,TEMP=13.8,BA=5.16,STAT.A=0.0,ExtBa=12.67